Fort Madison, IA

3:32 AM CST on February 11, 2016 (GMT -0600)
Fort Madison Municipal

Weather History for KFSW - April, 2013

Change the Weather History Date:

Friday, April 19, 2013

  Actual Average Record
Temperature  
Mean Temperature 40 °F -  
Max Temperature 44 °F 66 °F 83 °F (1977)
Min Temperature 35 °F 45 °F 28 °F (1953)
Degree Days  
Heating Degree Days 26    
Moisture  
Dew Point 27 °F    
Average Humidity 63    
Maximum Humidity 75    
Minimum Humidity 43    
Precipitation  
Precipitation 0.00 in - - ()
Sea Level Pressure  
Sea Level Pressure 29.82 in    
Wind  
Wind Speed 17 mph (West)    
Max Wind Speed 26 mph    
Max Gust Speed 34 mph    
Visibility 10 miles    
Events Rain    
Averages and records for this station are not official NWS values.
T = Trace of Precipitation, MM = Missing Value Source: NWS Daily Summary

Daily Weather History Graph

Daily Weather History Graph

Search for Another Location

Airport or City:

Trip Planner

Search our weather history database for the weather conditions in past years. The results will help you decide how hot, cold, wet, or windy it might be!

Date:

Astronomy

Apr. 19, 2013 Rise Set
Actual Time 6:20 AM CDT 7:49 PM CDT
Civil Twilight 5:51 AM CDT 8:17 PM CDT
Nautical Twilight 5:17 AM CDT 8:52 PM CDT
Astronomical Twilight 4:40 AM CDT 9:29 PM CDT
Moon 1:32 PM CDT (4/19) 2:37 AM CDT (4/19)
Length of Visible Light 14h 26m
Length of Day
13h 28m
First Quarter, 62% of the Moon is Illuminated
Apr 19
First Quarter
Apr 25
Full
May 2
Last Quarter
May 9
New
May 17
First Quarter

Hourly Weather History & Observations

Time (CDT) Temp. Windchill Dew Point Humidity Pressure Visibility Wind Dir Wind Speed Gust Speed Precip Events Conditions
12:15 AM 39.2 °F 29.8 °F 30.2 °F 70% 29.68 in 10.0 mi West 18.4 mph 25.3 mph N/A   Overcast
12:35 AM 39.2 °F 31.2 °F 30.2 °F 70% 29.69 in 10.0 mi West 13.8 mph 24.2 mph N/A   Overcast
12:55 AM 39.2 °F 30.8 °F 30.2 °F 70% 29.69 in 10.0 mi West 15.0 mph 20.7 mph N/A   Overcast
1:15 AM 37.4 °F 29.3 °F 30.2 °F 75% 29.68 in 10.0 mi West 12.7 mph 19.6 mph N/A   Overcast
1:35 AM 37.4 °F 28.5 °F 30.2 °F 75% 29.68 in 10.0 mi West 15.0 mph 20.7 mph N/A   Overcast
1:55 AM 37.4 °F 28.2 °F 30.2 °F 75% 29.68 in 10.0 mi West 16.1 mph - N/A   Overcast
2:15 AM 37.4 °F 27.2 °F 30.2 °F 75% 29.68 in 10.0 mi West 19.6 mph 25.3 mph N/A   Overcast
2:35 AM 37.4 °F 27.8 °F 28.4 °F 70% 29.68 in 10.0 mi West 17.3 mph 21.9 mph N/A   Overcast
2:55 AM 37.4 °F 26.6 °F 28.4 °F 70% 29.68 in 10.0 mi West 21.9 mph 28.8 mph N/A   Overcast
3:15 AM 37.4 °F 26.6 °F 28.4 °F 70% 29.68 in 10.0 mi West 21.9 mph 25.3 mph N/A   Overcast
3:35 AM 37.4 °F 28.5 °F 28.4 °F 70% 29.68 in 10.0 mi West 15.0 mph 20.7 mph N/A   Overcast
3:55 AM 37.4 °F 29.8 °F 28.4 °F 70% 29.68 in 10.0 mi West 11.5 mph 21.9 mph N/A   Overcast
4:15 AM 37.4 °F 29.3 °F 28.4 °F 70% 29.68 in 10.0 mi WSW 12.7 mph 20.7 mph N/A   Overcast
4:35 AM 37.4 °F 28.9 °F 28.4 °F 70% 29.68 in 10.0 mi West 13.8 mph 24.2 mph N/A   Overcast
4:55 AM 37.4 °F 27.8 °F 28.4 °F 70% 29.68 in 10.0 mi West 17.3 mph 25.3 mph N/A   Overcast
5:15 AM 37.4 °F 28.2 °F 28.4 °F 70% 29.69 in 10.0 mi West 16.1 mph 25.3 mph N/A   Overcast
5:55 AM 37.4 °F 28.2 °F 26.6 °F 65% 29.69 in 10.0 mi West 16.1 mph 27.6 mph N/A   Overcast
6:15 AM 37.4 °F 27.5 °F 26.6 °F 65% 29.70 in 10.0 mi West 18.4 mph 26.5 mph N/A   Overcast
6:35 AM 37.4 °F 29.8 °F 28.4 °F 70% 29.71 in 10.0 mi West 11.5 mph 24.2 mph N/A   Overcast
6:55 AM 37.4 °F 25.6 °F 26.6 °F 65% 29.71 in 10.0 mi West 26.5 mph 31.1 mph N/A   Overcast
7:15 AM 35.6 °F 24.2 °F 26.6 °F 70% 29.72 in 10.0 mi West 21.9 mph 31.1 mph N/A   Overcast
7:35 AM 37.4 °F 28.2 °F 26.6 °F 65% 29.72 in 10.0 mi West 16.1 mph 27.6 mph N/A   Overcast
7:55 AM 37.4 °F 27.5 °F 26.6 °F 65% 29.72 in 10.0 mi West 18.4 mph 23.0 mph N/A   Overcast
8:15 AM 37.4 °F 27.8 °F 28.4 °F 70% 29.73 in 10.0 mi West 17.3 mph 23.0 mph N/A   Overcast
8:35 AM 37.4 °F 28.2 °F 26.6 °F 65% 29.73 in 10.0 mi West 16.1 mph 25.3 mph N/A   Overcast
8:55 AM 37.4 °F 28.5 °F 28.4 °F 70% 29.74 in 10.0 mi West 15.0 mph 20.7 mph N/A   Overcast
9:15 AM 35.6 °F 24.2 °F 26.6 °F 70% 29.75 in 10.0 mi West 21.9 mph 28.8 mph N/A   Overcast
9:55 AM 37.4 °F 27.8 °F 26.6 °F 65% 29.76 in 10.0 mi West 17.3 mph 27.6 mph N/A   Overcast
10:15 AM 37.4 °F 26.9 °F 28.4 °F 70% 29.76 in 10.0 mi West 20.7 mph 27.6 mph N/A   Overcast
10:35 AM 37.4 °F 27.2 °F 26.6 °F 65% 29.77 in 10.0 mi West 19.6 mph 28.8 mph N/A   Overcast
10:55 AM 37.4 °F 26.1 °F 26.6 °F 65% 29.77 in 10.0 mi West 24.2 mph 31.1 mph N/A   Overcast
11:15 AM 39.2 °F 28.7 °F 28.4 °F 65% 29.77 in 10.0 mi West 23.0 mph 28.8 mph N/A   Mostly Cloudy
11:35 AM 39.2 °F 29.3 °F 26.6 °F 61% 29.78 in 10.0 mi West 20.7 mph 25.3 mph N/A   Overcast
11:55 AM 39.2 °F 29.0 °F 26.6 °F 61% 29.78 in 10.0 mi West 21.9 mph 26.5 mph N/A   Overcast
12:15 PM 39.2 °F 29.8 °F 28.4 °F 65% 29.79 in 10.0 mi West 18.4 mph 25.3 mph N/A   Overcast
12:35 PM 41.0 °F 31.1 °F 26.6 °F 57% 29.79 in 10.0 mi West 23.0 mph 32.2 mph N/A   Overcast
12:55 PM 41.0 °F 31.9 °F 26.6 °F 57% 29.80 in 10.0 mi West 19.6 mph 25.3 mph N/A   Overcast
1:15 PM 41.0 °F 33.9 °F 28.4 °F 61% 29.80 in 10.0 mi West 12.7 mph 26.5 mph N/A   Overcast
1:35 PM 42.8 °F 34.8 °F 28.4 °F 57% 29.80 in 10.0 mi West 17.3 mph 25.3 mph N/A   Overcast
1:55 PM 42.8 °F 34.8 °F 28.4 °F 57% 29.81 in 10.0 mi West 17.3 mph - N/A   Overcast
2:15 PM 42.8 °F 34.0 °F 26.6 °F 53% 29.82 in 10.0 mi West 20.7 mph 29.9 mph N/A   Overcast
2:35 PM 42.8 °F 34.3 °F 26.6 °F 53% 29.83 in 10.0 mi WNW 19.6 mph 34.5 mph N/A   Overcast
2:55 PM 42.8 °F 33.3 °F 24.8 °F 49% 29.83 in 10.0 mi WNW 24.2 mph 31.1 mph N/A   Overcast
3:15 PM 42.8 °F 33.3 °F 28.4 °F 57% 29.84 in 10.0 mi WNW 24.2 mph 33.4 mph N/A Rain Rain
3:35 PM 42.8 °F 34.0 °F 28.4 °F 57% 29.84 in 10.0 mi West 20.7 mph 27.6 mph N/A   Mostly Cloudy
3:55 PM 42.8 °F 35.1 °F 28.4 °F 57% 29.85 in 10.0 mi WNW 16.1 mph 32.2 mph N/A   Mostly Cloudy
4:15 PM 44.6 °F 36.4 °F 26.6 °F 49% 29.86 in 10.0 mi WNW 20.7 mph 27.6 mph N/A   Mostly Cloudy
4:35 PM 44.6 °F 36.6 °F 26.6 °F 49% 29.86 in 10.0 mi West 19.6 mph 27.6 mph N/A   Mostly Cloudy
4:55 PM 44.6 °F 36.1 °F 26.6 °F 49% 29.87 in 10.0 mi WNW 21.9 mph 28.8 mph N/A   Mostly Cloudy
5:15 PM 44.6 °F 36.6 °F 26.6 °F 49% 29.88 in 10.0 mi WNW 19.6 mph 29.9 mph N/A   Overcast
5:35 PM 44.6 °F 36.1 °F 24.8 °F 46% 29.89 in 10.0 mi WNW 21.9 mph 27.6 mph N/A   Overcast
5:55 PM 44.6 °F 36.9 °F 24.8 °F 46% 29.89 in 10.0 mi WNW 18.4 mph 31.1 mph N/A   Overcast
6:15 PM 44.6 °F 36.4 °F 24.8 °F 46% 29.90 in 10.0 mi WNW 20.7 mph 29.9 mph N/A   Overcast
6:35 PM 44.6 °F 36.1 °F 24.8 °F 46% 29.90 in 10.0 mi WNW 21.9 mph 27.6 mph N/A   Overcast
6:55 PM 44.6 °F 37.2 °F 24.8 °F 46% 29.92 in 10.0 mi WNW 17.3 mph 26.5 mph N/A   Mostly Cloudy
7:15 PM 44.6 °F 38.1 °F 23.0 °F 43% 29.93 in 10.0 mi NW 13.8 mph 24.2 mph N/A   Mostly Cloudy
7:35 PM 42.8 °F 35.4 °F 26.6 °F 53% 29.94 in 10.0 mi NW 15.0 mph - N/A   Mostly Cloudy
7:55 PM 41.0 °F 34.7 °F 28.4 °F 61% 29.96 in 10.0 mi NW 10.4 mph - N/A   Scattered Clouds
8:15 PM 39.2 °F 32.0 °F 28.4 °F 65% 29.97 in 10.0 mi NW 11.5 mph 16.1 mph N/A   Clear
8:35 PM 39.2 °F 31.6 °F 26.6 °F 61% 29.99 in 10.0 mi NW 12.7 mph 18.4 mph N/A   Clear
8:55 PM 37.4 °F 30.3 °F 26.6 °F 65% 30.00 in 10.0 mi NW 10.4 mph - N/A   Clear
9:15 PM 37.4 °F 30.8 °F 26.6 °F 65% 30.01 in 10.0 mi NW 9.2 mph - N/A   Clear
9:35 PM 37.4 °F 31.4 °F 26.6 °F 65% 30.02 in 10.0 mi NW 8.1 mph - N/A   Clear
9:55 PM 37.4 °F 31.4 °F 26.6 °F 65% 30.03 in 10.0 mi WNW 8.1 mph - N/A   Clear
10:15 PM 35.6 °F 29.2 °F 26.6 °F 70% 30.04 in 10.0 mi WNW 8.1 mph - N/A   Clear
10:35 PM 35.6 °F 29.9 °F 26.6 °F 70% 30.04 in 10.0 mi WNW 6.9 mph - N/A   Clear
10:55 PM 35.6 °F 29.2 °F 26.6 °F 70% 30.05 in 10.0 mi WNW 8.1 mph - N/A   Clear
11:15 PM 35.6 °F 29.2 °F 26.6 °F 70% 30.05 in 10.0 mi WNW 8.1 mph - N/A   Clear
11:35 PM 35.6 °F 29.2 °F 26.6 °F 70% 30.06 in 10.0 mi WNW 8.1 mph - N/A   Clear
11:55 PM 35.6 °F 29.9 °F 26.6 °F 70% 30.07 in 10.0 mi WNW 6.9 mph - N/A   Clear